CAPE
983 988 999 1071 996 1002 1001 1176 1299 1466 1547 1642 1665 1754 1869 1965 2043 2278 2642 2885 2937 2977 2848 2794 2812 2956 3431 3362 3396 3781 3662 3108 2834 2582 2612 3060 2930 2646 2522 2694 2946 2924
1102 1101 1516 1182 1192 1524 1217 1040 1266 1419 1486 1499 1540 1606 1733 1934 1894 2074 2228 2493 2916 3188 2905 2809 2768 2704 2739 2890 2816 2975 3025 3082 3046 3429 3138 2772 2697 2515 2696 2946 3056 2901
1271 1305 1380 1272 1115 1195 1303 1219 1282 1359 1443 1488 1511 1499 1594 2081 1921 1927 2012 2132 2327 2592 2752 2700 2668 2706 2855 2886 2721 2756 3036 2863 2791 2730 3141 3148 2919 2828 2918 2827 2851 2680
1313 1425 1477 1458 1431 1392 1315 1379 1421 1432 1512 1594 1659 1817 1882 2032 2171 1970 1929 2868 2284 2203 2309 2471 2633 2608 2773 2911 2859 2705 2614 2698 2713 2726 2811 2984 3109 3161 3164 3082 3087 2766
1345 1382 1479 1570 1562 1527 1455 1430 1525 1518 1592 1698 1738 1901 2312 2237 2270 2136 2013 1984 2292 2284 2152 2345 2459 2524 2673 2808 2843 2813 2689 2702 2608 2537 2660 2747 2840 2914 3004 3117 3056 2744
1294 1352 1373 1519 1609 1660 1630 1572 1579 1626 1664 1692 1818 2148 2109 2073 2014 2095 2087 2016 1979 2060 2162 2195 2303 2396 2418 2674 2579 2664 2635 2665 2736 2718 2638 2743 2868 2768 2839 3232 2964 2892
1059 1180 1243 1383 1576 1606 1779 1810 1731 1970 1719 1758 1852 1931 2069 2029 2053 2056 2018 2020 1988 2294 2242 2338 2472 2478 2288 2292 2288 2271 2206 2129 2207 2409 2664 2786 2862 2878 3020 3341 2954 2830
906 996 1089 1175 1478 1543 1698 1768 1833 1963 1930 1849 1771 1808 1852 1965 1995 1982 2007 2018 2010 2020 2017 2019 2084 2218 2259 2267 2259 2180 1921 1516 1662 1985 2455 2572 2615 2792 2934 2735 2743 2649
870 945 990 1058 1268 1431 1538 1592 1667 1800 1899 1920 1888 1887 1921 1989 2089 2144 2074 1903 1824 1830 1870 1865 1758 1850 1990 2117 2166 2075 1799 1542 1639 1816 1951 2300 2489 2624 2589 2510 2410 2279
902 948 989 1038 1099 1221 1359 1478 1514 1568 1647 1742 1837 1900 1966 2022 2058 2032 1967 1795 1708 1724 1759 1589 1250 1246 1492 1684 1766 1723 1606 1565 1524 1480 1875 2096 2162 2161 2315 2528 2400 2200
951 992 1042 1047 1071 1040 1153 1258 1324 1425 1496 1527 1558 1592 1642 1669 1735 1787 1789 1635 1564 1589 1623 1448 1173 1015 955 1001 1117 1246 1299 1300 1298 1528 1894 2159 2235 2057 2259 2193 2093 2105
928 1002 1052 1082 1087 1042 1019 1079 1164 1202 1283 1364 1386 1384 1373 1362 1390 1435 1453 1417 1378 1372 1427 1349 1197 1047 861 879 954 1002 1009 1010 1198 1618 1962 2131 1983 2020 2175 2048 2114 2163
907 946 1024 1056 1174 1182 1050 999 1018 1063 1087 1148 1223 1258 1272 1291 1343 1369 1381 1325 1315 1340 1402 1375 1253 1122 908 751 782 869 857 959 1205 1474 1744 1727 1642 1921 2098 1900 1935 2184
936 954 995 1049 1097 1163 1145 1066 1014 993 1024 1026 1133 1143 1181 1236 1276 1251 1272 1304 1335 1327 1328 1254 1311 1243 1010 736 708 775 821 930 963 1172 1444 1494 1473 1553 1583 1886 2188 2266
1067 1077 1059 1087 1260 1132 1099 1108 1090 1055 1040 1044 1078 1139 1183 1207 1240 1197 1306 1309 1278 1259 1264 1294 1304 1204 1112 1012 821 878 954 995 1013 1083 1336 1422 1378 1468 1549 1266 1672 1431
1218 1253 1238 1140 1160 1181 1109 1124 1124 1122 1111 1116 1119 1137 1175 1192 1192 1261 1289 1243 1185 1251 1281 1291 1174 1222 1166 1196 1264 1066 1075 1092 942 1185 1348 1521 1473 1362 1258 953 1007 1712
1298 1330 1342 1252 1176 1212 1170 1173 1190 1193 1204 1209 1202 1197 1195 1224 1241 1135 1162 1216 1200 1222 1270 1287 1190 1203 1124 968 1014 1180 1326 1096 1132 1454 1210 1290 1158 1226 1133 824 850 1606
1302 1345 1361 1349 1285 1276 1275 1288 1324 1362 1386 1376 1343 1359 1401 1392 1294 1195 1158 1150 1176 1222 1252 1225 1186 1162 1157 945 924 1049 1186 1552 1734 1353 1002 1156 1275 1538 1302 1104 1171 1521
1255 1317 1315 1354 1372 1374 1384 1410 1470 1502 1525 1488 1388 1436 1481 1488 1483 1343 1212 1154 1183 1217 1170 1106 1124 1150 1083 967 997 1031 1020 999 1055 1275 1370 1159 1029 1295 1340 1065 1158 1554
1191 1257 1313 1355 1392 1428 1462 1511 1524 1540 1571 1524 1430 1383 1454 1533 1548 1497 1364 1325 1290 1165 1026 1030 1100 1059 872 788 830 968 1004 1041 1261 1546 1809 1879 1862 1763 1542 1328 1337 1286
1195 1211 1250 1306 1356 1406 1474 1472 1459 1540 1592 1578 1460 1391 1395 1477 1559 1536 1400 1299 1204 1048 933 1031 1030 898 883 868 877 914 1064 1156 1433 1768 2010 2154 2041 1917 1752 1358 1082 1080
1241 1262 1252 1280 1296 1324 1335 1415 1474 1534 1631 1568 1458 1388 1397 1449 1526 1470 1354 1268 1126 1045 969 982 983 991 991 1004 996 947 970 1128 1343 1566 1799 1926 1950 1870 1791 1506 1217 1086
1283 1287 1275 1246 1217 1039 985 1421 1514 1534 1543 1487 1444 1370 1341 1378 1408 1360 1294 1194 1211 1134 1068 1077 1105 1112 1095 1084 1090 1088 1056 1078 1184 1406 1566 1641 1568 1459 1296 1079 774 804
1205 1260 1304 1307 1075 846 619 1006 1453 1487 1474 1460 1423 1329 1284 1280 1275 1314 1314 1292 1276 1152 1064 1139 1258 1226 1180 1182 1197 1214 1204 1182 1142 1114 1073 988 885 827 732 777 783 635
1144 1134 1071 963 845 778 609 966 1311 1488 1455 1444 1416 1330 1277 1235 1262 1077 1096 882 902 1128 1282 1281 1145 1060 1147 1316 1343 1300 1267 1221 1144 1023 978 916 752 671 704 713 554 383
784 956 1008 1025 1038 1066 1037 964 1235 1427 1400 1301 1265 1387 1293 1337 1444 1475 1364 1212 1125 1376 1415 1412 1413 1380 1341 1293 1267 1239 1181 1077 960 831 741 785 661 496 563 417 280 272
Wind_Speed
5 6 6 7 8 8 8 8 8 8 8 8 7 7 7 7 7 6 5 5 5 4 4 4 4 4 4 4 3 2 1 2 2 1 2 3 3 4 3 3 4 5
5 6 7 7 9 10 10 9 8 8 8 8 8 8 9 9 8 7 6 6 6 5 5 5 4 4 4 3 2 2 2 1 2 1 2 3 3 4 3 3 2 3
7 6 6 6 7 8 9 10 10 9 9 9 10 10 10 9 8 7 7 7 6 7 5 5 4 3 3 3 2 1 2 2 2 2 2 3 2 2 2 0 0 1
8 7 7 7 7 7 9 10 11 10 11 10 9 9 9 10 9 8 7 7 7 7 6 5 4 3 2 2 1 1 1 1 2 1 2 1 1 1 0 1 1 1
9 9 9 8 8 8 9 10 10 10 9 9 10 9 9 9 8 8 7 6 6 6 6 5 4 4 3 3 3 4 4 3 3 1 0 1 0 2 1 1 2 2
12 11 10 9 9 10 10 9 10 9 9 9 8 9 8 7 7 6 5 5 5 6 7 7 7 8 7 5 4 3 3 3 3 3 2 1 1 2 2 3 3 3
11 12 11 12 12 11 11 10 10 10 9 9 10 8 8 7 5 5 5 6 6 6 6 5 5 4 4 4 3 2 2 2 2 1 0 1 1 1 3 5 6 5
12 13 14 14 13 13 12 12 12 12 10 10 8 8 7 7 6 7 8 7 6 5 4 4 3 2 3 4 3 1 1 2 2 3 4 3 4 2 3 5 8 7
14 14 15 14 14 15 14 14 14 13 12 10 10 9 8 8 8 9 9 7 6 5 4 3 3 3 4 5 4 3 2 3 3 3 2 3 4 4 4 6 7 7
13 14 15 15 15 16 14 14 14 14 13 11 10 10 9 9 10 10 8 6 4 3 3 4 5 5 6 6 4 5 4 4 5 5 4 4 5 6 6 7 7 8
12 13 14 14 14 15 14 14 14 14 14 12 11 9 9 11 11 9 7 7 6 5 7 7 6 6 7 6 7 6 5 5 5 6 6 5 5 7 9 11 10 10
12 14 13 14 14 15 13 14 14 14 13 13 11 9 9 11 9 8 8 7 7 8 8 7 8 8 9 9 9 8 7 7 7 7 7 7 7 9 11 12 13 12
13 13 13 14 14 14 14 14 13 13 12 11 10 9 9 12 9 7 8 9 8 9 9 9 10 12 11 11 10 10 9 10 10 9 9 9 10 10 12 14 14 15
14 14 15 15 16 15 14 13 12 12 11 10 10 8 9 11 10 9 9 12 10 9 9 12 13 14 13 13 12 12 12 12 13 12 12 13 12 13 14 16 18 18
17 17 18 17 17 16 15 14 13 12 12 11 10 10 12 13 12 11 11 11 11 11 13 14 15 14 15 15 14 14 15 15 15 15 16 17 16 15 19 19 18 18
18 19 19 19 18 16 15 14 13 13 13 12 12 12 13 14 13 13 14 13 13 14 15 16 15 15 14 13 15 17 17 17 17 17 17 18 22 26 25 26 23 18
20 19 20 19 17 16 16 16 15 16 16 16 15 15 15 16 16 15 16 16 15 16 17 17 17 17 14 14 15 16 18 20 19 20 23 23 23 22 24 24 25 23
20 21 21 19 19 17 16 17 18 19 19 19 18 17 18 19 18 17 18 18 19 18 19 19 21 25 25 24 23 24 23 23 23 23 20 21 24 27 26 25 25 24
22 22 22 21 20 19 19 20 20 20 20 20 18 18 21 21 20 20 20 21 22 23 24 25 25 27 26 26 27 29 30 27 24 25 24 26 26 28 27 26 27 28
23 23 23 22 22 22 23 23 23 21 21 22 22 22 22 23 26 25 25 26 26 28 29 28 28 28 25 25 27 30 30 27 26 28 28 28 28 29 28 28 30 30
25 25 24 25 25 25 26 25 24 24 24 26 26 27 27 27 26 29 30 30 31 31 31 31 29 30 27 27 27 29 30 27 28 30 31 30 29 29 30 32 33 32
28 27 30 36 38 34 28 26 26 26 28 32 34 33 33 33 33 32 32 33 33 34 33 33 31 33 30 31 31 29 29 28 30 32 32 32 32 32 34 34 34 34
33 33 34 34 36 36 34 28 27 32 33 33 35 34 35 35 33 32 32 34 37 37 36 34 33 35 36 37 36 34 31 30 30 32 33 35 34 35 36 37 35 34
35 34 33 30 30 32 36 35 33 32 33 32 35 36 37 35 35 37 36 36 39 39 37 38 38 39 41 41 40 39 36 35 36 37 37 37 37 36 36 36 38 40
35 34 36 37 35 38 42 42 39 37 36 38 39 39 40 39 39 41 38 38 42 43 44 43 42 42 44 45 45 44 41 40 39 39 40 39 38 38 38 37 39 39
35 35 39 41 40 39 40 43 43 42 42 42 42 41 41 40 41 43 44 41 44 43 42 42 45 44 45 48 47 49 50 45 41 41 41 42 42 42 43 41 40 40
Wind_Direction
210 203 197 193 189 189 194 198 202 203 192 195 195 183 179 173 190 183 173 181 178 172 166 155 156 150 149 144 149 159 130 96 110 40 2 353 359 353 6 14 1 353
209 202 191 191 183 179 176 178 184 184 176 174 170 174 174 180 178 180 171 170 174 164 159 160 157 144 145 145 136 130 123 85 84 321 14 15 18 354 14 19 22 354
211 206 196 193 185 170 161 165 170 169 171 165 169 173 171 176 176 176 171 171 172 163 158 156 156 142 137 129 122 120 104 75 64 32 4 46 14 12 36 49 288 27
199 201 200 193 186 169 165 167 164 167 170 172 167 170 173 175 181 177 172 169 171 157 152 159 135 140 123 104 134 155 126 119 87 35 39 16 357 320 145 259 303 326
201 198 198 197 190 185 182 172 169 173 174 166 171 178 179 176 178 179 177 170 163 152 157 149 147 142 156 170 197 179 189 172 164 174 45 108 295 294 294 320 7 8
201 199 201 200 202 204 198 185 179 183 181 183 181 189 187 187 182 175 175 174 179 172 170 172 175 185 194 205 224 218 214 205 199 200 158 127 130 302 308 334 339 333
206 204 200 205 207 210 207 198 196 196 194 194 208 197 201 197 188 180 192 201 202 204 198 198 211 219 226 233 225 214 228 246 218 224 351 47 333 41 324 318 319 322
210 208 205 207 208 211 211 211 210 209 207 211 211 204 207 193 188 206 222 227 225 226 227 233 248 269 271 269 278 346 344 278 312 331 337 339 315 343 318 299 303 313
217 214 213 212 211 212 211 212 215 217 219 216 212 208 208 199 208 220 226 226 223 229 229 227 238 247 250 262 269 275 256 245 269 286 299 302 307 314 310 290 293 301
223 219 220 217 216 215 214 214 218 219 223 221 214 212 208 210 224 229 228 226 224 225 225 221 238 242 248 251 257 262 266 271 279 295 297 293 295 291 285 285 292 291
225 225 222 222 220 219 217 217 218 218 221 221 217 205 208 224 228 230 232 229 225 228 227 228 238 254 260 260 263 268 275 273 282 291 294 290 294 297 293 294 293 297
228 227 224 224 224 223 222 219 219 218 216 218 217 203 212 233 242 235 236 237 234 232 234 235 243 253 263 270 273 274 270 270 276 281 288 289 286 289 291 292 294 298
228 229 228 226 224 225 224 222 222 222 221 218 217 209 221 243 238 235 230 238 238 239 241 246 249 253 259 266 267 266 265 263 264 269 273 277 276 278 284 290 295 295
226 230 231 230 228 227 228 227 228 227 227 225 221 215 223 242 242 237 231 238 241 246 244 247 251 253 257 260 263 268 271 270 267 269 272 271 272 272 284 293 295 295
229 229 232 234 234 233 232 231 232 232 231 228 223 216 225 239 240 239 242 248 247 253 255 254 257 258 258 261 265 271 273 273 273 274 277 275 277 277 263 258 265 275
235 232 234 238 239 239 239 237 237 236 234 231 225 221 225 236 240 243 247 253 260 261 263 261 263 263 270 288 281 272 274 274 274 274 276 273 262 256 259 263 261 268
239 234 234 237 239 240 240 240 238 236 234 233 230 227 230 236 240 247 252 255 261 263 266 266 263 261 263 278 282 282 276 276 276 270 266 271 282 286 284 285 284 280
241 240 236 232 233 235 239 239 238 237 236 237 236 234 235 240 243 246 250 255 257 261 262 263 264 251 249 252 257 261 260 266 272 281 291 287 277 275 276 287 291 285
241 243 242 236 232 230 231 232 235 237 237 238 239 238 240 243 245 249 251 252 255 260 260 255 257 247 249 253 258 261 263 271 280 284 279 279 282 284 291 291 285 280
244 246 246 244 238 234 231 231 232 234 235 236 236 239 242 244 247 251 252 251 250 252 253 252 252 241 246 254 262 267 272 278 280 280 280 282 284 284 286 288 286 287
247 246 246 246 243 240 238 235 235 234 234 235 236 238 243 247 250 252 247 249 249 251 251 250 249 238 245 250 259 270 278 280 279 281 282 282 284 286 286 283 281 284
252 248 245 240 235 230 232 238 241 241 243 242 241 240 240 241 238 244 251 250 248 248 250 248 246 238 242 245 248 259 281 276 277 280 283 284 281 275 272 272 275 274
255 255 251 251 252 247 232 228 244 250 250 249 249 249 248 242 242 243 247 252 254 254 255 254 249 242 244 245 247 249 264 272 276 276 276 274 271 274 274 272 271 271
254 254 251 251 255 258 253 245 242 248 258 260 261 258 254 253 251 249 248 253 256 255 255 257 254 247 247 249 250 252 257 267 271 270 270 273 275 275 279 277 276 279
253 253 253 253 249 244 243 248 255 254 249 249 250 253 257 256 253 254 252 250 254 255 256 257 255 251 250 252 254 256 260 264 269 273 273 272 273 275 275 276 277 280
253 255 255 255 254 252 249 249 249 251 253 252 249 251 253 251 251 252 252 249 250 252 255 256 255 253 252 254 256 261 266 268 267 270 272 274 275 276 276 273 273 273